Location: Baltschieder
(46.3080°N, 7.8638°E)
Time: 11:51:17
(UTC+00:00)

Daily predictions for brighter satellites

Satellite Brightness Start Highest point End
(mag) Time Altitude Azimuth Time Altitude Azimuth Time Altitude Azimuth
Cosmos 2056 Rocket 4.1 19:52:27 10° SSW 19:57:49 66° WNW 20:03:15 10° NNE
Cosmos 1420 Rocket 4.3 19:54:56 10° SSW 20:00:11 76° WNW 20:05:31 10° NNE
Cosmos 1709 Rocket 4.3 19:54:04 10° NNW 20:00:18 76° W 20:06:34 10° S
CARTOSAT-1 4.0 19:57:41 10° SE 20:01:50 49° ENE 20:06:00 10° N
Cosmos 1975 Rocket 3.8 19:58:55 10° SSW 20:03:18 59° WNW 20:07:41 10° N
Cosmos 676 Rocket 4.4 19:58:10 10° NNW 20:03:27 68° WSW 20:08:39 10° S
SL-24 R/B 4.4 19:59:59 10° SSE 20:04:20 68° ENE 20:09:20 10° N
Cosmos 1741 Rocket 4.5 19:59:16 10° NNW 20:04:27 50° ENE 20:09:37 10° SE
ATLAS 5 CENTAUR R/B 3.7 19:52:23 10° NW 20:05:53 60° WSW 20:09:54 10° SSE
Tiangong 3.5 20:05:40 10° SW 20:07:12 13° SSW 20:08:45 10° S
Cosmos 2315 Rocket 4.2 20:01:43 10° S 20:08:03 80° W 20:14:22 10° N
SPOT 3 Rocket 3.8 20:06:16 10° SSE 20:11:19 57° ENE 20:16:27 10° N
Ariane Rocket 3.1 20:07:47 10° SSE 20:12:53 88° ENE 20:18:01 10° NNW
Cosmos 2074 Rocket 4.3 20:06:59 10° N 20:13:07 54° ENE 20:19:12 10° SSE
Cosmos 1544 Rocket 3.8 20:15:35 10° NNW 20:19:54 71° W 20:24:13 10° S
Lacrosse 5 rocket 3.7 20:19:30 10° W 20:21:22 13° WSW 20:23:17 10° SSW
Cosmos 1656 3.7 20:17:04 10° NNW 20:22:34 82° WSW 20:28:06 10° SSE
GEOS 3 Rocket 4.2 20:17:52 10° SSE 20:22:49 51° WSW 20:27:49 10° NW
ATLAS 2AS CENTAUR R/B 3.5 20:22:23 10° NW 20:29:02 46° WSW 20:35:16 10° S
MetOp-B 4.3 20:24:50 10° S 20:30:11 78° WSW 20:35:35 10° NNW
Cosmos 1850 Rocket 4.0 20:26:14 10° NNW 20:31:28 85° ENE 20:36:19 12° SSE
SL-16 R/B 4.5 20:30:14 10° N 20:33:08 14° NE 20:36:01 10° ENE
Cosmos 1980 Rocket 3.2 20:28:59 10° NNW 20:34:13 36° NE 20:39:07 11° ESE
Cosmos 1697 Rocket 2.9 20:29:05 10° NNW 20:34:41 64° ENE 20:39:32 14° SE
USA 32 4.4 20:29:40 10° SSW 20:34:52 66° W 20:40:04 10° N
Cosmos 2344 4.5 20:28:06 10° NW 20:36:46 65° NE 20:48:13 12° SE
SL-8 R/B 3.7 20:32:22 10° WNW 20:37:10 70° SSW 20:41:22 13° ESE
Cosmos 1331 Rocket 4.1 20:32:34 10° S 20:37:44 56° ESE 20:42:55 10° NNE
Cosmos 2369 4.5 20:32:19 10° NNW 20:37:45 42° NE 20:42:35 13° ESE
COSMOS 2406 3.7 20:37:40 10° S 20:43:03 42° ESE 20:48:26 10° NE
Spot 2 Rocket 3.6 20:38:47 13° SSE 20:43:23 72° ENE 20:48:30 10° N
Cosmos 2154 Rocket 4.1 20:38:34 10° N 20:44:46 65° ENE 20:50:11 14° SSE
X-37B 0.5 20:42:37 10° W 20:45:21 51° SSW 20:47:01 20° ESE
ATLAS 5 CENTAUR R/B 3.3 20:48:00 11° ESE 20:48:00 11° ESE 20:48:36 10° E
CZ-2C R/B 4.0 20:43:57 10° NNE 20:48:20 45° E 20:51:58 14° S
SPOT 5 2.6 20:49:45 15° SSE 20:53:24 86° ENE 20:57:44 10° NNW
Cosmos 1703 3.4 20:52:01 10° SSW 20:55:51 71° W 20:59:42 10° N
Cosmos 2084 Rocket 3.5 20:53:24 10° NW 20:57:17 64° NE 21:00:03 19° SE
RESURS DK-1 3.0 20:54:13 10° NW 20:58:13 48° WSW 21:01:19 16° S
Cosmos 1452 Rocket 4.1 20:53:44 10° SW 20:58:55 59° WNW 21:04:07 10° NNE
Cosmos 1833 Rocket 2.7 20:53:30 10° SSW 20:59:07 89° WNW 21:04:47 10° NNE
Terra 1.9 20:56:28 17° SSE 21:00:03 70° ENE 21:04:49 10° N
CZ-4B R/B 3.8 20:59:53 10° NNW 21:02:01 19° WNW 21:04:09 10° WSW
ASTEX 1 4.5 20:59:20 10° NNE 21:03:44 30° E 21:06:20 19° SE
Cosmos 967 Rocket 4.5 20:57:35 10° SSW 21:04:03 81° ESE 21:10:33 10° NE
Helios 1A Rocket 3.0 21:01:06 17° S 21:04:11 78° WSW 21:08:18 10° NNW
Cosmos 1110 Rocket 4.1 20:59:35 10° SSW 21:04:51 80° WNW 21:10:12 10° NNE
ERS-1 Rocket 3.0 21:02:34 16° SSE 21:06:37 83° WSW 21:11:41 10° NNW
Cosmos 1892 Rocket 4.0 21:04:14 20° SSE 21:06:53 44° E 21:11:03 10° NNE
Resurs 01 Rocket 4.0 21:04:19 10° SW 21:07:27 19° W 21:10:37 10° NW
Cosmos 1302 Rocket 4.2 21:03:52 14° S 21:08:10 50° ESE 21:13:12 10° NNE
Cosmos 2322 Rocket 4.3 21:05:18 10° N 21:09:00 17° NE 21:12:43 10° E
Cosmos 2228 3.4 21:07:47 10° NNW 21:11:58 59° W 21:15:15 16° S
Cosmos 2058 Rocket 3.8 21:08:45 10° N 21:12:58 41° ENE 21:15:19 22° SE
Cosmos 1825 3.8 21:15:03 17° ESE 21:15:50 18° E 21:18:27 10° NE
Cosmos 1408 3.1 21:16:14 28° SE 21:17:23 37° E 21:20:36 10° NNE
Lacrosse 5 4.1 21:16:10 10° W 21:18:33 13° WSW 21:20:55 10° SSW
Meteor 1-11 4.5 21:15:39 20° SSE 21:19:23 52° E 21:24:48 10° NNE
Cosmos 2278 4.4 21:15:01 10° NNW 21:20:33 47° ENE 21:24:23 19° ESE
Cosmos 968 Rocket 3.5 21:18:12 10° NNW 21:23:26 75° ENE 21:26:36 24° SSE
Cosmos 1328 3.9 21:22:06 17° SSW 21:25:06 79° W 21:29:07 10° N
USA 276 3.3 21:25:22 10° WNW 21:28:16 41° N 21:31:02 11° ENE
SJ 16-02 3.6 21:29:48 10° NNE 21:32:29 16° NE 21:35:10 10° E
Cosmos 2082 Rocket 2.2 21:27:22 11° SSW 21:32:54 73° ESE 21:38:37 10° NNE
Cosmos 1867 3.6 21:27:45 10° NW 21:33:16 81° NE 21:36:30 25° SE
ASTRO F (AKARI) 4.5 21:32:26 32° S 21:33:57 78° WSW 21:37:28 10° NNW
USA 267 3.5 21:30:51 10° ENE 21:37:05 45° SE 21:43:16 10° SSW
ARIANE 5 R/B 2.8 21:35:43 25° S 21:38:16 67° WSW 21:42:41 10° NNW
Cosmos 1606 Rocket 4.3 21:36:30 10° NNW 21:40:39 46° W 21:43:24 19° SSW
GP-B 3.2 21:37:13 10° N 21:41:38 62° E 21:43:34 31° SSE
Cosmos 2341 Rocket 4.0 21:36:47 10° N 21:43:08 84° E 21:47:01 25° S
Cosmos 2360 Rocket 4.2 21:40:59 10° N 21:45:09 20° NE 21:49:17 10° E
SAR-Lupe-4 3.6 21:42:15 10° NNE 21:45:48 58° ESE 21:46:46 41° SSE
CSL-04 DEB 4.5 21:48:00 10° NNE 21:52:22 74° ESE 21:54:21 32° S
Okean 1-7 Rocket 3.6 21:58:40 36° SSE 22:00:19 64° E 22:04:48 10° NNE
SAR-Lupe-1 4.1 21:58:47 10° N 22:02:22 76° WNW 22:03:39 37° SSW
Cosmos 1892 2.9 22:02:06 33° SSW 22:03:38 66° W 22:07:24 10° N
Cosmos 1758 Rocket 4.4 22:08:36 31° ESE 22:09:31 34° E 22:13:29 10° NNE
Cosmos 2181 Rocket 3.9 22:07:21 26° S 22:11:03 90° ESE 22:17:21 10° N
USA 234 3.7 22:05:12 10° ESE 22:11:37 60° NNE 22:18:02 10° NW
Cosmos 1633 3.1 22:12:09 38° E 22:12:15 38° E 22:15:31 10° NNE
Cosmos 1697 Rocket 4.5 22:14:01 10° NW 22:18:07 21° W 22:21:16 14° SW
Cosmos 1992 Rocket 3.9 22:15:18 27° SSW 22:18:13 90° W 22:23:30 10° NNE
Cosmos 1980 Rocket 3.0 22:12:59 10° NW 22:18:17 41° WSW 22:20:52 26° SSW
Cosmos 1821 Rocket 4.3 22:12:20 10° N 22:18:28 55° ENE 22:21:23 30° SE
SL-16 R/B 2.5 22:12:53 10° NNW 22:18:31 59° ENE 22:21:23 28° SE
Cosmos 1486 Rocket 3.9 22:13:44 10° NNW 22:18:58 83° WSW 22:21:05 37° SSE
Cosmos 1932 4.5 22:14:03 10° SW 22:20:16 82° NW 22:26:40 10° NE
SL-4 R/B 4.2 22:23:23 11° E 22:23:23 11° E 22:23:35 10° E
Cosmos 1812 Rocket 3.8 22:16:25 10° N 22:20:50 59° ENE 22:22:08 41° SE
Cosmos 2219 Rocket 4.4 22:18:19 10° N 22:22:11 18° NE 22:26:02 10° E
Cosmos-2242 3.2 22:25:59 10° N 22:30:11 57° ENE 22:31:12 44° SE
ATLAS 5 CENTAUR R/B 1.4 22:29:23 29° SW 22:31:10 71° NW 22:35:21 10° NE
Cosmos 1602 Rocket 3.4 22:32:11 49° S 22:33:18 81° E 22:37:39 10° N
Cosmos 1869 3.7 22:30:28 10° NNW 22:34:16 52° W 22:35:09 42° SW
Cosmos 807 4.2 22:31:33 10° NNW 22:34:24 72° NW 22:34:24 72° NW
ERS-2 3.7 22:35:07 10° NE 22:37:40 22° E 22:37:40 22° E
Terra 4.2 22:35:39 10° WSW 22:38:18 15° W 22:40:57 10° NW
Nadezhda 3 Rocket 4.1 22:36:22 35° SSE 22:38:55 60° E 22:44:59 10° NNE
ALOS 2 2.7 22:39:48 44° SE 22:41:00 66° ENE 22:45:22 10° N
FALCON 9 DEB 3.5 22:39:38 10° WNW 22:42:17 51° W 22:42:17 51° W
Cosmos 1354 Rocket 4.0 22:41:53 10° NNW 22:47:13 86° ENE 22:49:06 42° SSE
BREEZE-M DEB (TANK) 4.0 22:45:28 10° WNW 22:48:52 77° NNE 23:02:42 10° ESE
ADEOS Rocket 3.5 22:45:43 31° SSE 22:49:38 81° ENE 22:57:26 10° NNW
Cosmos 1825 3.5 22:49:40 25° WSW 22:50:56 32° WNW 22:54:21 10° N
Cosmos 2322 Rocket 2.2 22:48:19 10° NNW 22:54:01 79° ENE 22:56:24 37° SE
Cosmos 1503 Rocket 4.1 22:51:43 10° NNW 22:56:58 66° WSW 22:58:35 43° S
Cosmos 1953 Rocket 4.2 22:58:43 38° ESE 22:59:27 42° E 23:03:38 10° NNE
USA 276 3.5 23:01:09 10° WNW 23:02:50 29° WNW 23:02:50 29° WNW
Cosmos 1777 Rocket 4.0 22:59:44 10° NNW 23:05:03 81° ENE 23:06:53 42° SSE
Cosmos 1825 Rocket 3.4 23:08:18 59° S 23:09:05 83° E 23:13:27 10° N
Cosmos 2333 Rocket 3.1 23:03:42 10° NNW 23:09:13 44° NE 23:12:52 20° ESE
CENTAUR R/B 4.1 23:09:34 15° ESE 23:10:33 16° ESE 23:14:13 10° ENE
Gbstr 26 Del rocket 3.1 23:11:09 55° SSE 23:11:22 56° SE 23:16:21 10° ENE
SJ 16-02 1.4 23:07:08 10° NNW 23:11:33 69° WSW 23:12:19 56° SSW
Cosmos 1340 Rocket 2.9 23:13:04 57° ESE 23:13:21 59° E 23:17:16 10° NNE
Cosmos 2082 Rocket 4.3 23:13:07 10° W 23:17:35 23° NW 23:22:04 10° N
H-2A R/B 3.9 23:15:41 10° N 23:19:48 55° WNW 23:20:55 41° WSW
USA 267 3.6 23:13:48 10° NE 23:20:17 67° NNW 23:26:45 10° WSW
Cosmos 2058 3.0 23:26:08 54° SW 23:26:54 68° W 23:31:05 10° N
Cosmos 2221 2.8 23:23:00 10° N 23:27:19 58° ENE 23:28:17 45° SE
Cosmos 1606 3.4 23:24:19 10° NNW 23:27:59 42° W 23:28:16 41° WSW
Cosmos 2360 Rocket 2.1 23:24:12 10° NNW 23:29:55 86° WSW 23:32:00 41° SSE
Cosmos 1842 Rocket 4.3 23:25:39 10° N 23:30:00 47° ENE 23:31:14 37° ESE
Cosmos 1934 Rocket 3.9 23:24:32 10° N 23:30:40 86° W 23:33:06 39° S
Nimbus 7 Rocket 4.4 23:28:23 10° NNE 23:34:20 72° ESE 23:36:36 40° S
Cosmos 2333 4.4 23:28:39 10° NNW 23:34:26 68° ENE 23:37:21 30° SE
Resurs 1-4 Rocket 4.4 23:33:38 10° ENE 23:35:29 12° E 23:37:19 10° ESE
Cosmos 1782 4.2 23:32:36 10° NNE 23:36:07 29° ENE 23:37:13 25° ESE
Cosmos 1833 4.1 23:39:57 43° SSW 23:41:53 81° ESE 23:47:30 10° NNE
NOSS 8 (A) 4.4 23:42:23 72° NNW 23:42:23 72° NNW 23:45:13 10° NE
Cosmos 44 3.0 23:41:21 56° S 23:42:14 76° SE 23:46:43 10° NE
CZ-2D R/B 4.3 23:41:46 10° ENE 23:44:12 13° E 23:46:37 10° ESE
Cosmos 1339 Rocket 4.5 23:50:04 37° SSW 23:52:39 76° W 23:58:49 10° N
Cosmos 2237 Rocket 4.3 23:49:44 10° N 23:54:12 23° NE 23:58:37 10° E
